www.pogodaiklimat.ru

Погода и климат >> Архив погоды >> Таиланд >> Suphan Buri


ПОГОДА в Suphan Buri

  • Прогноз погоды в Suphan Buri
  • Монитор погоды в Suphan Buri
  • Климат города

АРХИВ ПОГОДЫ в Suphan Buri

Время (UTC), дата Ветер
(напр.,м/с)
 
Видим.   Явления Облачность Т
(С)
Тd
(С)
f
(%)
Тe
(С)
Тes
(С)
Комфортность P
(гПа)
Po
(гПа)
Тmin
(С)
Tmax
(С)
R
(мм)
R24
(мм)
S
(см)
00 20.05 штиль 0 12 км 5/0
[Ac lent Cs]
+27.7 +25.3 87 +40 +42 очень
душно
1007.8 1006.8 +25.5
03 20.05 штиль 0 14 км 5/0
[Ac trans Cs]
+33.1 +25.7 65 +48 +64 опасность
перегрева
1009.0 1008.0
06 20.05 штиль 0 14 км 5/3 600 м
[Cu hum Cs]
+35.4 +24.2 52 +47 +66 опасность
перегрева
1007.0 1006.0
09 20.05 З 3 14 км 5/3 600 м
[Cb cap Ci ing]
+37.1 +25.1 50 +50 +55 опасность
перегрева
1004.2 1003.2
12 20.05 ЮВ 3 12 км 8/3 600 м
[Cb cap Ac und Cs]
+34.0 +25.8 62 +49 +49 опасность
перегрева
1005.1 1004.1 +37.6
15 20.05 штиль 0 10 км 4/0
[Ac trans Cs]
+30.9 +26.7 78 +48 +48 опасность
перегрева
1007.5 1006.5
18 20.05 штиль 0 10 км 3/0
[Cs]
+29.8 +27.0 85 +47 +47 опасность
перегрева
1007.0 1006.0
21 20.05 штиль 0 10 км 3/0
[Cs]
+28.5 +26.8 91 +45 +45 опасность
перегрева
1006.6 1005.6
00 21.05 штиль 0 12 км 3/0
[Cs]
+28.8 +26.1 85 +43 +45 опасность
перегрева
1007.4 1006.4 +27.2
03 21.05 штиль 0 12 км 3/0
[Cs]
+33.7 +26.5 66 +50 +70 опасность
перегрева
1009.0 1008.0
06 21.05 штиль 0 12 км 6/3 600 м
[Cu med, cong Cs]
+36.4 +25.2 53 +50 +69 опасность
перегрева
1006.4 1005.4
09 21.05 ЮЗ 2 12 км 6/3 600 м
[Cu med, cong Cs]
+35.0 +24.9 56 +48 +54 опасность
перегрева
1004.0 1003.0
12 21.05 штиль 0 10 км гроза без осадков 8/4 600 м
[Cb cap Ac lent Cs]
+28.0 +23.6 77 +38 +38 очень
душно
1006.8 1005.8 +37.0
15 21.05 З 3 10 км гроза, ливневой дождь 10/4 600 м
[Cb cap Ac und Cs]
+26.7 +24.2 86 +37 +37 очень
душно
1009.8 1008.8 0.0
18 21.05 штиль 0 10 км {гроза} 10/3 600 м
[Sc Ac und Cs]
+26.1 +24.5 91 +37 +37 очень
душно
1008.3 1007.3 0.1
21 21.05 штиль 0 10 км 3/0
[Ac trans Cs]
+25.8 +23.9 89 +35 +35 очень
душно
1007.7 1006.7
00 22.05 штиль 0 10 км 8/3 600 м
[Sc Ac trans Cs]
+26.3 +24.9 92 +38 +38 очень
душно
1009.3 1008.3 +24.5
03 22.05 штиль 0 10 км 8/3 600 м
[Cu med, cong Ac trans Cs]
+30.0 +24.4 72 +42 +51 опасность
перегрева
1011.0 1010.0
06 22.05 штиль 0 12 км 8/3 600 м
[Cu med, cong Ac trans Cs]
+32.6 +24.7 63 +46 +58 опасность
перегрева
1008.3 1007.3
09 22.05 штиль 0 12 км 10/4 600 м
[Cb cap Ac und Cs]
+32.7 +25.4 66 +47 +51 опасность
перегрева
1006.9 1005.9
12 22.05 штиль 0 10 км в посл. час дождь {гроза} 8/3 600 м
[Sc Ac lent Cs]
+27.1 +26.1 94 +41 +41 опасность
перегрева
1008.4 1007.4 +34.5 8
15 22.05 штиль 0 8000 м дымка 8/3 600 м
[Sc Ac lent Cs]
+27.5 +25.5 89 +40 +40 очень
душно
1010.8 1009.8
18 22.05 штиль 0 6000 м дымка 3/0
[Cs]
+27.0 +26.1 95 +41 +41 опасность
перегрева
1009.9 1008.9
21 22.05 штиль 0 6000 м дымка 3/0
[Cs]
+26.5 +25.6 95 +39 +39 очень
душно
1009.0 1008.0
00 23.05 штиль 0 8000 м дымка 8/0
[Ac trans Cs]
+26.9 +25.5 92 +39 +41 очень
душно
1010.0 1009.0 +25.8
03 23.05 штиль 0 10 км 8/3 600 м
[Cu med, cong Ac trans Cs]
+31.3 +25.4 71 +46 +55 опасность
перегрева
1010.5 1009.5
06 23.05 штиль 0 10 км 8/4 600 м
[Cu med, cong Cs]
+32.5 +25.3 66 +47 +62 опасность
перегрева
1007.7 1006.7
09 23.05 штиль 0 12 км 8/3 600 м
[Cu med, cong Cs]
+34.4 +24.6 57 +47 +54 опасность
перегрева
1005.5 1004.5
12 23.05 штиль 0 10 км гроза, ливневой дождь 10/4 600 м
[Cb cap Ac und Cs]
+28.6 +24.9 80 +41 +41 опасность
перегрева
1006.8 1005.8 +35.5 0.0
15 23.05 штиль 0 8000 м слабый дождь {гроза} 10/4 600 м
[Sc Ac und Cs]
+27.5 +24.6 84 +39 +39 очень
душно
1009.4 1008.4 2
18 23.05 штиль 0 8000 м дымка {гроза, дождь} 10/4 600 м
[Sc Ac und Cs]
+26.6 +25.5 94 +39 +39 очень
душно
1008.3 1007.3 0.1
21 23.05 штиль 0 6000 м дымка 10/4 600 м
[Sc Ac und Cs]
+26.5 +25.8 96 +39 +39 очень
душно
1007.3 1006.3
00 24.05 штиль 0 8000 м дымка 10/5 600 м
[Sc Ac und Cs]
+26.1 +24.1 89 +36 +37 очень
душно
1008.8 1007.7 +24.5
03 24.05 ЮЗ 3 10 км 10/4 600 м
[Sc Ac As Cs]
+29.5 +24.5 75 +42 +46 опасность
перегрева
1010.4 1009.4
06 24.05 ЮЗ 4 12 км 8/3 600 м
[Cb cap Ac lent Cs]
+32.3 +25.4 67 +47 +53 опасность
перегрева
1008.1 1007.2
09 24.05 Ю 3 12 км 8/4 600 м
[Cb cap Ac lent Cs]
+32.9 +26.1 68 +49 +52 опасность
перегрева
1006.1 1005.1
12 24.05 З 3 10 км 8/4 600 м
[Cb cap Ac lent Cs]
+28.5 +23.7 75 +39 +39 очень
душно
1008.5 1007.5 +34.2
15 24.05 ЮЗ 3 10 км 8/4 600 м
[Sc Ac As Cs]
+27.4 +26.3 94 +42 +42 опасность
перегрева
1010.3 1009.3
18 24.05 штиль 0 10 км 5/1 600 м
[Sc Ac trans Cs]
+26.5 +25.2 93 +38 +38 очень
душно
1008.8 1007.8
21 24.05 штиль 0 10 км 5/1 600 м
[Sc Ac trans Cs]
+26.1 +24.9 93 +37 +37 очень
душно
1007.8 1006.8
00 25.05 штиль 0 10 км 5/3 600 м
[Sc Ac lent Cs]
+26.1 +24.8 93 +37 +38 очень
душно
1008.7 1007.7 +24.7
03 25.05 штиль 0 12 км 6/3 600 м
[Cu med, cong Ac lent Cs]
+30.9 +25.7 74 +46 +57 опасность
перегрева
1009.4 1008.4
06 25.05 штиль 0 12 км 8/3 600 м
[Cu med, cong Ac lent Cs]
+33.5 +24.9 61 +47 +60 опасность
перегрева
1007.6 1006.6
09 25.05 ЮЗ 4 12 км 8/4 600 м
[Cb cap Ac lent Cs]
+34.1 +24.3 57 +47 +49 опасность
перегрева
1004.9 1004.0
12 25.05 Ю 2 10 км 9/4 600 м
[Cb cap Ac As Cs]
+31.4 +26.1 74 +47 +47 опасность
перегрева
1005.8 1004.8 +35.5
15 25.05 штиль 0 10 км зарница {дождь} 8/3 600 м
[Cb cap Ac trans Cs]
+27.8 +23.7 78 +38 +38 очень
душно
1009.2 1008.2 0.7
18 25.05 штиль 0 10 км {дождь} 10/3 600 м
[Sc Ac trans Cs]
+27.5 +25.4 88 +40 +40 очень
душно
1007.7 1006.7
21 25.05 штиль 0 10 км 5/0
[Ac trans Cs]
+27.1 +25.8 93 +40 +40 очень
душно
1007.1 1006.1
00 26.05 штиль 0 10 км 9/3 600 м
[Sc Ac und Cs]
+27.3 +25.0 87 +39 +40 очень
душно
1008.0 1007.0 +25.9
03 26.05 Ю 2 12 км 9/3 600 м
[Sc Ac und Cs]
+31.2 +24.3 67 +43 +50 опасность
перегрева
1010.1 1009.1
06 26.05 штиль 0 12 км 6/3 600 м
[Cb cap Ac trans Ci ing]
+33.5 +23.9 57 +45 +61 опасность
перегрева
1008.4 1007.4
09 26.05 ЮЗ 2 12 км 8/4 600 м
[Cu med, cong Ac lent Cs]
+35.0 +25.2 57 +49 +52 опасность
перегрева
1006.3 1005.3
12 26.05 штиль 0 5000 м слабый дождь {гроза} 10/6 600 м
[Sc As op]
+25.5 +24.8 96 +36 +36 очень
душно
1008.4 1007.3 +36.0 37
15 26.05 штиль 0 10 км {дождь} 10/4 600 м
[Sc As op Cs]
+26.0 +25.4 97 +38 +38 очень
душно
1010.9 1009.9 2
18 26.05 штиль 0 10 км {дождь} 9/3 600 м
[Sc As op Cs]
+26.0 +25.3 96 +38 +38 очень
душно
1010.3 1009.3
21 26.05 штиль 0 7000 м дымка 8/3 600 м
[Sc Ac lent Cs]
+26.1 +25.4 96 +38 +38 очень
душно
1008.9 1007.9

 

Местоположение метеостанции Suphan Buri (Таиланд): широта 14.47 долгота 100.13 высота над уровнем моря 8 м.

В архиве по умолчанию представлена погода в Suphan Buri за последнюю неделю. Архивные данные за месяц целиком и за предыдущие месяцы, начиная с января 2011 года, Вы можете получить, выбрав интересующий диапазон дат из раскрывающегося списка и нажав кнопку "Ввод!".


*Определитесь, кто Вы:
робот инопланетянин человек

Внимание! Время в таблицах - всемирное. Для получения местного времени необходимо прибавить поправку, которая в Suphan Buri равна 7 ч.

Смотрите также архив погоды в соседних городах и на ближайших метеорологических станциях:

Погода в U Thong Agromet (Таиланд) (34 км)
Погода в Nakhonpathom (Таиланд) (53 км)
Погода в Lop Buri (Таиланд) (63 км)
Погода в Ayutthaya (Таиланд) (64 км)
Погода в Pathumthani (Таиланд) (67 км)
Погода в Chainat Agromet (Таиланд) (76 км)
Погода в Don Muang (Таиланд) (79 км)
Погода в Kanchanaburi (Таиланд) (82 км)
Погода в Saraburi (Таиланд) (85 км)
Погода в Bangkok (Таиланд) (94 км)

Пояснения к столбцам:

Ветер - указаны скорость ветра в м/с - средняя за 10 мин, порывы в срок и между сроками (в фигурных скобках) и направление, откуда дует ветер: С - северный, СВ - северо-восточный, В - восточный, ЮВ - юго-восточный, Ю - южный, ЮЗ - юго-западный, З - западный, СЗ - северо-западный.
Видимость - горизонтальная дальность видимости в метрах или километрах. При видимости от 1 до 10 км при отсутствии осадков обычно наблюдается дымка, при ухудшении видимости до 1 км и менее - туман. В сухую погоду видимость может ухудшаться дымом, пылью или мглою.
Явления - указаны атмосферные явления, наблюдавшиеся в срок или в последний час перед сроком; фигурными скобками обозначены явления, наблюдавшиеся между сроками (за 1-3 часа до срока); квадратными скобками обозначены град или гололедные отложения с указанием их диаметра в мм.
Облачность - указаны через наклонную черту общая и нижняя облачность в баллах и высота нижней границы облаков в метрах; квадратными скобками обозначены формы облаков: Ci - перистые, Cs - перисто-слоистые, Cc - перисто-кучевые, Ac - высококучевые, As - высокослоистые, Sc - слоисто-кучевые, Ns - слоисто-дождевые, Cu - кучевые, Cb - кучево-дождевые. Подробнее классификацию облаков см. в Атласе облаков (PDF).
T - Температура воздуха - температура, измеренная на высоте 2 м над землей.
Td - Температура точки росы - температура, при понижении до которой содержащийся в воздухе водяной пар достигнет насыщения.
f - Относительная влажность воздуха - влажноcть воздуха, измеренная на высоте 2 м над землей.
Te - Эффективная температура - температура, которую ощущает одетый по сезону человек в тени. Характеристика душности погоды. При расчете учитывается влияние влажности воздуха и скорости ветра на теплоощущения человека.
Tes - Эффективная температура на солнце - температура, которую ощущает человек, с поправкой на солнечный нагрев. Характеристика знойности погоды. Зависит от высоты солнца над горизонтом, облачности и скорости ветра. Ночью, в пасмурную погоду, а также при ветре 12 м/с и более поправка равна нулю.
P - Атмосферное давление - приведенное к уровню моря атмосферное давление.
Po - Атмосферное давление - измеренное на уровне метеостанции атмосферное давление.
Tmin - Минимальная температура - минимум температуры воздуха на высоте 2 м над землей.
Tmax - Максимальная температура - максимум температуры воздуха на высоте 2 м над землей.
R - Количество осадков - Количество выпавших осадков за период времени, мм. При наведении курсора мыши на число - период времени, за который выпало указанное количество осадков.
R24 - Количество осадков - Количество выпавших осадков за 24 часа, мм.
S - Снежный покров - Высота снежного покрова, см. При наведении курсора мыши на число - состояние снежного покрова и степень покрытия местности в баллах.